User: anonymous   Login
Location: Lødingen
(68.4072°N, 15.9919°E)
Time: 08:59:21
(UTC+02:00)
Language:

BlueWalker 3 - Orbit

View from above orbital plane
View from above orbital plane
View from above satellite
View from above satellite

Ground track
Ground track

The orbit data is extracted from the following two-line orbital elements,

1 53807U 22111AL  23266.49760053  .00006838  00000-0  31030-3 0  9998
2 53807  53.2113 343.1937 0011954   3.4585 356.6494 15.21894030 57412
Epoch (UTC): 23 September 2023 11:56:32
Eccentricity: 0.0011954
inclination: 53.2113°
perigee height: 492 km
apogee height: 508 km
right ascension of ascending node: 343.1937°
argument of perigee: 3.4585°
revolutions per day: 15.21894030
mean anomaly at epoch: 356.6494°
orbit number at epoch: 5741

The dashed part of the orbit path shows where the satellite is in the earth's shadow,  

DLR